User: anonymous   Login
Location: Braden Valley Church
(38.0012°N, 88.6106°W)
Time: 06:10:51
(UTC+00:00)
Language:

Cosmos 44 Rocket - Orbit

View from above orbital plane
View from above orbital plane
View from above satellite
View from above satellite

Ground track
Ground track

The orbit data is extracted from the following two-line orbital elements,

1   877U 64053B   22148.83728365  .00000135  00000-0  52514-4 0  9999
2   877  65.0794  52.8266 0052262 130.7402 229.8253 14.59533759 65157
Epoch (UTC): 28 May 2022 20:05:41
Eccentricity: 0.0052262
inclination: 65.0794°
perigee height: 658 km
apogee height: 731 km
right ascension of ascending node: 52.8266°
argument of perigee: 130.7402°
revolutions per day: 14.59533759
mean anomaly at epoch: 229.8253°
orbit number at epoch: 6515

The dashed part of the orbit path shows where the satellite is in the earth's shadow,  

DLR